Showing default

IRIDIUM 153, 43078

Orbit data source: Space-Track

IRIDIUM 153, 43078 is a payload satellite owned by Iridium (US) in LEO that was launched on Sat, 23 Dec 2017 UTC via an FALCON 9 launch vehicle from the Air Force Western Test Range (AFWTR). Payloads include a variety of satellites, spacecraft, and rockets equipped with specific instruments for various scientific and technological missions. These include communications satellites like Starlink; space stations such as the ISS; scientific satellites like the Hubble; Earth observation satellites from companies like Planet Labs, Umbra, and HawkEye 360; GPS; miniature CubeSats for education and research; and military/defense satellites.

Loading next visibility...
IRIDIUM 153 details
Identifier
43078, 2017-083J
Orbit
LEO
Last TLE update9 hours ago
Origin
Flag of USIridium (US)
ManufacturerOATK SSG Gilbert
MissionOperational Commercial Communications
Bus & MotorELITEBUS, Unknown motor
Mass860 kg wet, 700 kg dry
Launch date (UTC)
2017-12-23 (7 years ago)
Launch vehicle
FALCON 9
Launch site
Air Force Western Test Range (AFWTR)
Object type
Payload
Rocket body
Debris
Shape & HBRTrap Box + 2 Pan, 9.4 m
Radar Cross Section14.423 m², Large (>1 m²)

Expand to show TLE details & history

TLE from 9 hours ago
0 IRIDIUM 153
1 43078U 17083J   24361.16942799  .00000636  00000-0  22008-3 0  9994
2 43078  86.3992 155.3750 0002072  74.8222 285.3203 14.34222252368167
Epoch: 2024-12-26T04:03Z
Definitive object data (Epoch: 2024-12-26T04:03:58.578Z)
Latitude
Longitude-0.77175°
Altitude780.312 km
Speed7.464 km/s
True Right ascension10h 21m 30s
True Declination0° 00' 00"
Sunlit
Object was in full shadow at TLE epoch
Visualization TLE readout
Latitude-27.98761°
Longitude-179.028°
Altitude789.243 km
Speed7.457 km/s
Apparent Right ascension23h 28m 09s
Apparent Declination-34° 37' 45"
Sunlit
Object is in daylight
Visualization observer readout
Local Sidereal Time12:45:55
Azimuth77.239° E
Elevation-73.69°
Doppler factor1
Orbital elements
Apogee altitude776.099 km
Perigee altitude773.135 km
Semi-major axis7,152.754 km
Eccentricity0.0002072
Inclination86.3992°
RAAN155.375°
Arg. of periapsis74.8222°
True anomaly285.2974°
Mean anomaly285.3203°
Eccentric anomaly285.30885°
Mean motion3.58784 °/min
BSTAR0.00022008
Orbital period100.34 mins
Loading maneuver chart data...
Loading historical data...
Loading historical data...
Loading historical data...
Loading historical data...
Loading historical data...
Loading historical data...
Loading historical data...

IRIDIUM 153 Visibility forecast

Observer location: undefined°, undefined

Span
Click to sort rows by Start time (UTC) header in descending order
Start Az.
Max El. time (UTC)
Max El. Az.
Max El.
End time (UTC)
End Az.
6 mins2024-12-26 21:24:15.209Z40.333° NE2024-12-26 21:27:15.209Z78.063° E15.976°2024-12-26 21:30:15.209Z114.049° SE
8 mins2024-12-26 23:04:15.209Z343.951° N2024-12-26 23:08:15.209Z266.064° W38.79°2024-12-26 23:12:15.209Z199.097° SSW
7 mins2024-12-27 10:20:15.209Z140.236° SSE2024-12-27 10:23:15.209Z92.675° ESE29.397°2024-12-27 10:27:15.209Z26.605° NE
7 mins2024-12-27 12:01:15.209Z235.684° WSW2024-12-27 12:04:15.209Z280.012° WNW23.041°2024-12-27 12:08:15.209Z334.223° NNW
|